{"data":{"norad_id":53160,"intl_designator":"2022-083AE","name":"STARLINK-4096","alt_names":[],"object_type":"PAYLOAD","status":"ACTIVE","operator":null,"country":"US","launch_date":"2022-07-17","launch_site_code":"AFETR","launch_vehicle":null,"mission":null,"orbit_class":"UNKNOWN","rcs_meters":null,"size_class":null,"mass_kg":null,"dimensions":null,"purposes":["comms"],"wikipedia_slug":null,"has_3d_model":false,"image_url":null,"decayed_at":null,"tle_current":{"epoch":"2026-09-20T00:21:35.339040Z","epoch_age_seconds":114192,"freshness":"FRESH","line1":"1 53160U 22083AE  26263.01499235  .00001168  00000+0  45703-4 0  9990","line2":"2 53160  53.1626   5.6439 0001072  74.5526 285.5595 15.34394304230770","mean_motion":15.34394304,"eccentricity":0.0001072,"inclination_deg":53.1626,"raan_deg":5.6439,"arg_perigee_deg":74.5526,"mean_anomaly_deg":285.5595,"bstar":4.5703e-5,"rev_number":23077,"period_min":93.848106464295,"perigee_km":461.98683008323,"apogee_km":463.45350986048,"semimajor_km":6840.8571699719,"source":"CELESTRAK","updated_at":"2026-09-20T09:00:40.183429Z"}}}